Powrót do katalogu

ONEWEB-0683

AktywnyŁącznośćPO
NORAD 56719·PAYLOAD·🇬🇧 United Kingdom

Wystrzelony May 20, 2023 z Vandenberg Space Force Base

Loading…

Następne Przeloty (najbliższe 24 godziny)

TLE

ŚwieżeSource: CelesTrak SupGP

Epoka: Sep 14, 2026, 16:08 UTC

1 56719C 23068K   26257.67272407 -.00000139  00000+0 -36845-3 0  2574
2 56719  87.8986 241.3571 0001829  90.2593  12.9624 13.15545822    18

Śledź ONEWEB-0683 w czasie rzeczywistym z AllMySat

Download on the App Store